This is the latest recevied weather packets stored in our database for station/object W4MJZ-1. If no packets are shown the sender has not sent any weather packets the latest 10 day(s).
| Time | Temp. | Humidity | Pressure | Rain* | Wind** | Luminosity | Snow |
|---|---|---|---|---|---|---|---|
| 1777996811 | 17.78° C | 70% | 1020 hPa | 0 mm | - | - | - |
| 1777996638 | 17.78° C | 70% | 1020 hPa | 0 mm | - | - | - |
| 1777996537 | 17.22° C | 70% | 1020 hPa | 0 mm | - | - | - |
| 1777996339 | 17.22° C | 70% | 1020 hPa | 0 mm | - | - | - |
| 1777996219 | 17.78° C | 70% | 1020.3 hPa | 0 mm | - | - | - |
| 1777996039 | 17.78° C | 70% | 1020.3 hPa | 0 mm | - | - | - |
| 1777995844 | 17.78° C | 71% | 1020.3 hPa | 0 mm | - | - | - |
| 1777995739 | 17.78° C | 71% | 1020.3 hPa | 0 mm | - | - | - |
| 1777995650 | 17.22° C | 72% | 1020 hPa | 0 mm | - | - | - |
| 1777995439 | 17.22° C | 72% | 1020 hPa | 0 mm | - | - | - |
| 1777995348 | 16.67° C | 76% | 1020.3 hPa | 0 mm | - | - | - |
| 1777995139 | 16.67° C | 76% | 1020.3 hPa | 0 mm | - | - | - |
| 1777995025 | 16.67° C | 75% | 1020.3 hPa | 0 mm | - | - | - |
| 1777994840 | 16.67° C | 75% | 1020.3 hPa | 0 mm | - | - | - |
| 1777994729 | 16.67° C | 75% | 1020 hPa | 0 mm | - | - | - |
| 1777994539 | 16.67° C | 75% | 1020 hPa | 0 mm | - | - | - |
| 1777994425 | 17.22° C | 74% | 1020 hPa | 0 mm | - | - | - |
| 1777994239 | 17.22° C | 74% | 1020 hPa | 0 mm | - | - | - |
| 1777994049 | 17.22° C | 80% | 1020 hPa | 0 mm | - | - | - |
| 1777993938 | 17.22° C | 80% | 1020 hPa | 0 mm | - | - | - |
| 1777993639 | 16.67° C | 82% | 1020.3 hPa | 0 mm | - | - | - |
| 1777993563 | 15.56° C | 83% | 1020.3 hPa | 0 mm | - | - | - |
| 1777993339 | 15.56° C | 83% | 1020.3 hPa | 0 mm | - | - | - |
| 1777993039 | 15.56° C | 86% | 1020.3 hPa | 0 mm | - | - | - |
| 1777992893 | 15° C | 87% | 1020.3 hPa | 0 mm | - | - | - |
* Rain latest hour (hover to see other rain measurements)
** Current wind speed in m/s (hover to see current wind gust speed)